Weather History for Lamezia Terme, Italy

Change the Weather History Date:

Saturday, May 18, 2013

  Actual Average Record
Temperature  
Mean Temperature 70 °F -  
Max Temperature 86 °F 74 °F 91 °F (2001)
Min Temperature 53 °F 60 °F 46 °F (2012)
Cooling Degree Days 4    
Growing Degree Days 20 (Base 50)    
Moisture  
Dew Point 55 °F    
Average Humidity 61    
Maximum Humidity 100    
Minimum Humidity 29    
Precipitation  
Precipitation 0.00 in - - ()
Sea Level Pressure  
Sea Level Pressure 29.96 in    
Wind  
Wind Speed 11 mph ()    
Max Wind Speed 26 mph    
Max Gust Speed 38 mph    
Averages and records for this station are not official NWS values.
T = Trace of Precipitation, MM = Missing Value Source: Averaged Metar Reports

Daily Weather History Graph

Daily Weather History Graph

Search for Another Location

Airport:

Trip Planner

Search our weather history database for the weather conditions in past years. The results will help you decide how hot, cold, wet, or windy it might be!

Date:

Astronomy

May. 18, 2013 Rise Set
Actual Time 5:39 AM CEST 8:03 PM CEST
Civil Twilight 5:09 AM CEST 8:33 PM CEST
Nautical Twilight 4:32 AM CEST 9:11 PM CEST
Astronomical Twilight 3:51 AM CEST 9:52 PM CEST
Moon 12:53 PM CEST (5/18) 1:19 AM CEST (5/18)
Length of Visible Light 15h 24m
Length of Day
14h 23m
First Quarter, 52% of the Moon is Illuminated
May 18
First Quarter
May 25
Full
May 31
Last Quarter
Jun 8
New
Jun 16
First Quarter

Hourly Weather History & Observations

Time (CEST) Temp. Heat Index Dew Point Humidity Pressure Visibility Wind Dir Wind Speed Gust Speed Precip Events Conditions
12:50 AM 59.0 °F - 57.2 °F 94% 29.98 in - Variable 1.2 mph - N/A   Clear
1:50 AM 57.2 °F - 55.4 °F 94% 29.95 in - Variable 3.5 mph - N/A   Clear
2:50 AM 57.2 °F - 55.4 °F 94% 29.95 in - Variable 3.5 mph - N/A   Clear
3:50 AM 57.2 °F - 55.4 °F 94% 29.95 in - East 5.8 mph - N/A   Clear
4:50 AM 55.4 °F - 53.6 °F 94% 29.95 in - Variable 3.5 mph - N/A   Clear
5:50 AM 53.6 °F - 53.6 °F 100% 29.98 in - ESE 4.6 mph - N/A   Clear
6:50 AM 59.0 °F - 57.2 °F 94% 29.98 in - East 5.8 mph - N/A   Clear
7:50 AM 68.0 °F - 57.2 °F 68% 29.98 in - ENE 11.5 mph - N/A   Clear
8:50 AM 75.2 °F - 55.4 °F 50% 29.98 in - East 18.4 mph - N/A   Clear
9:50 AM 78.8 °F - 57.2 °F 47% 29.98 in - East 16.1 mph - N/A   Clear
10:50 AM 80.6 °F 80.5 °F 55.4 °F 42% 29.98 in - East 20.7 mph - N/A   Clear
11:50 AM 82.4 °F 81.4 °F 53.6 °F 37% 29.98 in - East 25.3 mph - N/A   Clear
12:50 PM 82.4 °F - 51.8 °F 35% 29.98 in - East 24.2 mph - N/A   Clear
1:50 PM 84.2 °F - 51.8 °F 33% 29.98 in - East 24.2 mph - N/A   Clear
2:50 PM 86.0 °F - 50.0 °F 29% 29.95 in - East 24.2 mph - N/A   Clear
3:50 PM 82.4 °F - 50.0 °F 32% 29.95 in - East 26.5 mph - N/A   Clear
4:50 PM 82.4 °F - 50.0 °F 32% 29.95 in - East 25.3 mph - N/A   Clear
5:50 PM 80.6 °F - 50.0 °F 34% 29.95 in - East 24.2 mph - N/A   Clear
6:50 PM 77.0 °F - 51.8 °F 41% 29.92 in - East 26.5 mph - N/A   Clear
8:50 PM 71.6 °F - 59.0 °F 64% 29.92 in - ENE 21.9 mph - N/A   Clear
9:50 PM 71.6 °F - 57.2 °F 60% 29.92 in - East 21.9 mph - N/A   Clear
10:50 PM 69.8 °F - 59.0 °F 68% 29.95 in - ENE 19.6 mph - N/A   Clear
11:50 PM 68.0 °F - 59.0 °F 73% 29.92 in - East 24.2 mph 38.0 mph N/A   Clear